sat.trackr.live / text

‹ back to catalog

ONEWEB-0497

NORAD 54116 · 2022-138D

PAYLOAD ACTIVE UNKNOWN

§ Identity

Operator
Country
UK
Launch date
2022-10-22
Launch site
SRILR
Launch vehicle
Mass (kg)
RCS (m²)

Purposes: comms

External: N2YO · Heavens-Above · Gunter

§ Orbital elements

Epoch: 2026-09-19T18:28:24.978720Z

Period
109.11 min
Inclination
87.9113°
Eccentricity
0.0001925
Mean motion
13.19726933 rev/d
Perigee alt
1,184.3 km
Apogee alt
1,187.2 km
Semi-major
7,563.9 km
B*
3.9838e-5
RAAN
286.1224°
Arg perigee
89.3518°
Mean anomaly
270.7835°
Rev number
18,928

§ Raw data

ONEWEB-04971 54116U 22138D   26262.76973355  .00000029  00000+0  39838-4 0  99912 54116  87.9113 286.1224 0001925  89.3518 270.7835 13.19726933189288

JSON: /api/v1/satellites/54116 · /tle

For live sub-satellite position, see the globe view (requires WebGL).

§ Visibility from observer

Set your observer location to see the next 7 days of passes ≥ 10°. The values pass through the URL so the page stays shareable.

No JS? Fill the form by hand. The geolocation button needs JavaScript.